Volver al catálogo

CZ-3C DEB

ActivoGTO
NORAD 40200·DEBRIS·🇨🇳 China

Lanzado Feb 24, 2012 desde Xichang Satellite Launch Center

Loading…

TLE

ObsoletoSource: Space-Track

Época: Sep 8, 2026, 03:27 UTC

1 40200U 12008K   26251.14381312 -.00000082  00000-0  00000-0 0  9997
2 40200  20.6841 231.0781 6978681 175.9268 196.3862  2.19220943100541

Sigue CZ-3C DEB en tiempo real con AllMySat

Download on the App Store